Location: *
(63.0453°N, 145.6142°W)
Time: 01:10:38
(UTC+00:00)

Daily predictions for brighter satellites

Satellite Brightness Start Highest point End
(mag) Time Altitude Azimuth Time Altitude Azimuth Time Altitude Azimuth
Cosmos 1680 Rocket 4.0 01:58:02 10° NW 02:03:01 40° NNE 02:07:58 10° ESE
IRIDIUM 104 4.5 01:57:57 10° N 02:03:13 84° W 02:08:27 10° S
CZ-4B DEB 4.3 01:57:49 10° SSE 02:03:20 83° ENE 02:08:57 10° NNW
MOS 1-B 4.4 01:59:09 10° SSE 02:04:57 81° ENE 02:10:47 10° NNW
Cosmos 2082 Rocket 2.9 01:59:36 10° WNW 02:04:59 39° N 02:10:22 10° ENE
USA 229 DEB 3.9 01:58:43 10° W 02:05:38 88° N 02:13:06 10° E
USA 229 3.9 01:58:49 10° W 02:05:45 88° N 02:13:11 10° E
NOSS 2-2 (C) 3.6 02:03:03 10° WSW 02:06:53 81° SSE 02:11:50 10° ENE
USA 281 4.0 02:01:29 10° ENE 02:07:14 34° N 02:13:00 10° NW
Meteor PRIRODA 4.4 02:06:58 10° S 02:10:35 57° WSW 02:14:12 10° NNW
Cosmos 2219 3.3 02:06:26 10° SW 02:12:11 79° SE 02:17:54 10° NE
NOSS 3-4 (A) 4.1 02:08:59 10° SSW 02:14:35 43° SE 02:20:42 10° ENE
NOSS 3-4 (C) 4.1 02:09:09 10° SSW 02:14:45 42° SE 02:20:52 10° ENE
H-2A R/B 2.9 02:10:49 10° ESE 02:15:06 28° NE 02:19:30 10° N
KORONAS-FOTON 4.3 02:11:31 10° SSE 02:15:15 43° E 02:19:00 10° NNE
Tsikada Rocket 4.2 02:13:01 10° SSE 02:19:03 51° E 02:25:03 10° NNE
Cosmos 1842 4.2 02:15:34 10° SW 02:19:18 47° WNW 02:23:05 10° N
CZ-2C R/B 3.7 02:15:42 10° ESE 02:20:50 41° NE 02:26:10 10° NNW
NOSS 3-1 (A) 3.8 02:14:40 10° W 02:21:09 89° N 02:29:00 10° E
CZ-2D R/B 4.0 02:18:42 10° ESE 02:22:05 30° ENE 02:25:28 10° N
COSMO-SKYMED 1 4.3 02:20:11 10° NE 02:22:19 13° E 02:24:25 10° ESE
Cosmos 2227 Rocket 2.3 02:18:35 10° SW 02:24:16 79° SE 02:29:59 10° NE
SL-19 R/B 4.4 02:19:01 10° NNE 02:24:35 65° ESE 02:30:16 10° SSW
Cosmos 1536 Rocket 3.9 02:22:51 10° S 02:27:05 48° E 02:31:23 10° NNE
IRAS Rocket 4.3 02:21:38 10° NNE 02:27:17 71° ESE 02:32:51 10° SSW
Meteor 1-21 4.5 02:22:41 10° SSW 02:28:25 75° WNW 02:34:09 10° NNE
H-2A R/B 2.5 02:24:31 10° SSE 02:28:40 86° ENE 02:33:01 10° NNW
Meteor 2-10 Rocket 3.8 02:23:45 10° NNW 02:29:17 52° ENE 02:34:36 10° SE
SL-08 R/B 3.3 02:25:36 10° NNE 02:30:15 88° E 02:34:58 10° SSW
NOSS 2-2 (E) 3.7 02:27:43 10° W 02:31:44 89° NNW 02:37:03 10° E
Cosmos 1400 Rocket 4.0 02:27:57 10° NNW 02:31:58 48° W 02:35:54 10° S
ATLAS 2AS CENTAUR R/B 3.5 02:24:48 10° SSW 02:32:20 49° SE 02:39:19 11° ENE
Cosmos 1025 Rocket 3.0 02:28:05 10° S 02:32:24 68° ESE 02:36:48 10° NNE
SL-14 R/B 4.1 02:29:18 10° SSE 02:32:45 30° E 02:36:15 10° NNE
SL-16 R/B 3.4 02:27:40 10° NNE 02:33:29 45° NW 02:39:18 10° WSW
Cosmos 1455 3.1 02:30:38 10° N 02:33:58 28° ENE 02:37:18 10° ESE
CZ-4C R/B 3.0 02:29:08 10° SSW 02:34:10 42° SE 02:39:51 12° ENE
Feng Yun 1-1 Rocket 4.3 02:28:51 10° SE 02:34:12 56° ENE 02:39:44 10° NNW
Genesis I 3.2 02:32:02 10° WSW 02:35:55 90° NNW 02:39:25 13° ENE
Cosmos 1538 Rocket 4.0 02:31:56 10° NW 02:37:10 89° ENE 02:42:21 10° SE
Cosmos 1300 2.6 02:35:30 10° NNW 02:39:21 83° ENE 02:43:11 10° SSE
Lacrosse 5 3.6 02:36:13 10° W 02:40:43 33° SSW 02:45:13 10° SE
Cosmos 2112 Rocket 4.2 02:35:59 10° NW 02:41:10 51° NE 02:46:17 10° ESE
RESURS DK-1 3.3 02:39:02 10° S 02:42:44 31° ESE 02:45:43 14° ENE
CZ-4B R/B 3.2 02:43:18 14° ENE 02:43:48 14° E 02:45:44 10° ESE
CZ-4B R/B 3.4 02:40:22 10° SSE 02:46:00 84° WSW 02:51:44 10° NNW
Cosmos 968 Rocket 3.6 02:42:16 10° SSW 02:47:18 59° ESE 02:52:13 11° NE
Cosmos 2297 Rocket 2.3 02:42:38 10° SW 02:48:19 77° NW 02:53:39 12° NE
SL-24 R/B 4.4 02:43:54 10° SSE 02:48:25 85° WSW 02:53:27 10° NNW
NOSS 8 (E) 4.4 02:45:37 10° W 02:48:45 89° SSE 02:52:31 11° E
NOAA 12 4.3 02:43:33 10° SSE 02:48:47 76° WSW 02:54:05 10° NNW
Okean-O 3.1 02:45:51 10° ESE 02:49:57 37° NE 02:54:03 10° N
Helios 1A Rocket 3.7 02:46:20 10° ESE 02:50:00 31° NE 02:53:41 10° N
Okean O Rocket 1.7 02:45:48 10° SSE 02:50:16 88° WSW 02:54:44 10° NNW
Cosmos 1606 Rocket 3.5 02:47:22 10° NNW 02:51:47 86° ENE 02:56:12 10° SSE
Envisat 4.1 02:47:18 10° S 02:52:14 49° W 02:57:13 10° NNW
Aureole 3 3.7 02:48:48 10° N 02:52:34 35° ENE 02:55:42 10° SE
Cosmos 405 4.4 02:50:19 10° N 02:52:58 19° NE 02:54:09 17° ENE
H-2A R/B 2.8 02:48:53 10° NNE 02:53:03 36° E 02:57:08 10° SSE
Timation 2 Rocket 4.3 02:46:20 10° SW 02:53:15 81° NW 02:59:38 13° NE
ATLAS 5 CENTAUR R/B 3.0 02:50:45 10° S 02:54:10 24° SE 02:56:53 15° E
Cosmos-2242 4.3 02:51:35 10° N 02:54:49 20° NE 02:56:59 15° E
CSL-04 Rocket 4.2 02:50:55 10° ESE 02:55:55 38° NE 03:00:59 10° NNW
Cosmos 1975 Rocket 3.9 02:51:46 10° SW 02:56:00 50° WNW 03:00:16 10° N
Cosmos 2228 3.1 02:53:19 10° NNW 02:57:36 81° WSW 03:01:53 10° S
USA 234 3.8 02:52:59 10° E 02:59:23 54° S 03:05:49 10° WSW
Cosmos 2082 3.7 02:56:23 10° SW 03:02:07 83° SE 03:07:10 14° NE
YAOGAN 1 2.9 02:59:24 10° SE 03:03:29 42° ENE 03:07:36 10° N
Cosmos 1892 Rocket 4.3 03:00:09 10° SSE 03:03:56 30° E 03:07:41 10° NNE
Cosmos 1486 Rocket 4.0 02:59:23 10° SSW 03:04:34 70° ESE 03:09:19 13° NE
Cosmos 2279 Rocket 4.0 02:59:01 10° NNW 03:05:21 90° WNW 03:11:38 10° SSE
Cosmos 1674 2.9 03:02:24 10° SSW 03:06:16 75° WNW 03:10:08 10° NNE
Cosmos 1812 Rocket 4.2 03:03:10 10° N 03:07:14 34° ENE 03:11:16 10° SE
Cosmos 909 Rocket 4.1 03:01:18 10° W 03:07:40 70° N 03:12:46 17° ENE
Meteor 2-1 Rocket 4.2 03:02:06 10° NNW 03:07:43 61° ENE 03:13:11 10° SE
HJ-1C 4.4 03:07:27 16° ESE 03:09:19 26° ENE 03:12:12 10° N
NOSS 2-2 (D) 3.6 03:05:37 10° W 03:09:39 86° N 03:13:34 18° E
Timation 1 Rocket 4.4 03:05:52 10° SW 03:11:53 74° SE 03:16:51 16° NE
Cosmos 2221 4.4 03:10:59 10° N 03:13:03 14° NE 03:13:03 14° NE
SMAP 3.9 03:08:54 10° S 03:13:29 53° W 03:18:04 10° NNW
OPS 0252 4.5 03:13:09 10° W 03:16:14 87° SSW 03:17:51 24° ESE
Cosmos 2344 4.1 03:08:52 10° WNW 03:17:01 81° SSW 03:27:58 10° ESE
SJ 16-02 3.0 03:14:24 10° SE 03:16:42 16° ESE 03:16:42 16° ESE
Cosmos 1707 4.3 03:13:43 10° SW 03:17:13 32° WNW 03:20:44 10° N
NOSS 8 (H) 4.5 03:14:30 10° W 03:17:43 87° SSW 03:20:23 19° ESE
CZ-4C R/B 2.6 03:15:05 14° NNE 03:17:45 68° ESE 03:20:53 10° S
Cosmos 2263 Rocket 2.5 03:13:27 10° SSW 03:18:56 51° ESE 03:23:00 18° NE
Landsat 5 3.3 03:14:53 10° NNE 03:18:56 68° ESE 03:22:49 10° S
Cosmos 1315 Rocket 4.2 03:17:18 10° NNW 03:21:04 42° W 03:24:50 10° S
Cosmos 1939 Rocket 3.0 03:18:31 10° SSE 03:22:38 79° WSW 03:26:43 10° NNW
NOSS 6 (F) 4.4 03:20:05 10° W 03:23:01 84° N 03:24:12 32° E
Cosmos 1626 2.1 03:22:15 10° SSW 03:25:57 85° WNW 03:29:41 10° NNE
Aureole 3 Rocket 3.3 03:23:19 10° N 03:25:36 26° NE 03:25:36 26° NE
Cosmos 2058 Rocket 3.1 03:21:55 10° NNW 03:26:27 88° WSW 03:30:58 10° SSE
ADEOS Rocket 3.4 03:20:32 10° NNE 03:26:52 64° WNW 03:32:36 10° SW
Meteor 2-5 Rocket 3.6 03:21:52 10° S 03:27:24 73° ESE 03:32:56 10° NNE
COSMOS 2406 3.2 03:23:26 10° NW 03:29:15 71° NE 03:34:55 11° ESE
ARGOS 3.2 03:26:55 10° SE 03:32:09 55° ENE 03:37:25 10° NNW
Cosmos 1503 Rocket 4.0 03:27:31 10° SSW 03:32:53 71° ESE 03:37:04 17° NE
SeaSat 1 2.5 03:29:11 17° NE 03:33:02 84° NW 03:37:59 10° SW
Cosmos 158 Rocket 4.3 03:27:46 10° NW 03:33:03 74° WSW 03:38:25 10° SSE
Ariane Rocket 3.7 03:33:46 23° E 03:35:52 32° NE 03:40:20 10° NNW
CZ-4 R/B 1.2 03:33:45 10° SSE 03:37:48 75° ENE 03:41:48 10° NNW
Cosmos 1726 Rocket 4.4 03:33:52 10° NNW 03:38:07 53° W 03:42:23 10° S
EP 3 4.1 03:36:43 10° W 03:38:18 55° WNW 03:38:18 55° WNW
Cosmos 923 Rocket 4.3 03:33:22 10° NW 03:38:43 73° WSW 03:44:02 10° SSE
NOSS 3-1 (C) 4.3 03:32:01 10° WNW 03:38:44 65° SSW 03:46:46 10° SE
USA 290 2.6 03:36:03 10° NNW 03:39:09 40° NE 03:39:28 39° ENE
Resurs 01 Rocket 3.2 03:39:59 18° NE 03:39:59 18° NE 03:42:37 10° N
IRS-1C Rocket 4.1 03:34:44 10° SSE 03:40:00 84° WSW 03:45:19 10° NNW
Cosmos 1833 Rocket 2.6 03:39:10 10° NW 03:44:50 74° NE 03:49:23 16° SE
Cosmos 1680 Rocket 3.6 03:40:19 10° NW 03:45:37 79° WSW 03:50:51 10° SSE
CSL-04 Debris 4.1 03:41:02 10° SE 03:46:23 67° ENE 03:51:46 10° NNW
OBJECT-B 3.4 03:49:43 10° N 03:49:43 10° N 03:49:43 10° N
MOS 1 Rocket 3.5 03:46:30 24° NE 03:48:36 40° E 03:52:39 10° SSE
Cosmos 2082 Rocket 2.3 03:44:18 10° NW 03:50:01 61° NNE 03:53:20 25° ESE
USA 281 3.5 03:47:07 24° E 03:50:47 47° NNE 03:57:01 10° NW
Okean 1-7 Rocket 3.8 03:46:48 10° S 03:51:12 50° E 03:54:34 17° NNE
SJ-11-01 4.2 03:48:03 10° SSE 03:52:45 78° ENE 03:57:27 10° NNW
Aureole 2 Rocket 4.4 03:50:19 10° SSE 03:50:56 14° SSE 03:50:56 14° SSE
H-2A R/B 1.9 03:48:57 10° SSE 03:54:01 84° ENE 03:59:17 10° NNW
Cosmos 1626 Rocket 4.2 03:51:32 10° SSE 03:55:17 34° E 03:55:17 34° E
Meteor 1-24 Rocket 3.5 03:50:19 10° SSW 03:55:38 88° ESE 04:01:01 10° NNE
CZ-2D R/B 3.9 03:52:28 10° S 03:56:17 57° WSW 04:00:05 10° NNW
USA 229 DEB 4.2 03:49:38 10° WNW 03:56:36 66° SSW 04:04:02 10° SE
USA 229 4.2 03:49:44 10° WNW 03:56:42 66° SSW 04:04:08 10° SE
Cosmos 2219 3.9 03:51:11 10° W 03:56:46 49° NNW 04:00:18 22° NE
Iridium 4 Rocket 3.8 03:51:33 10° N 03:57:20 56° ENE 04:02:42 10° SSE
NOSS 2-2 (C) 3.7 03:53:20 10° W 03:57:32 89° N 04:00:00 32° E
CSL-04 DEB 4.4 03:55:04 21° NNE 03:57:53 64° ESE 04:02:01 10° S
Cosmos 1092 Rocket 4.3 03:52:30 10° SSE 03:58:13 41° E 04:03:56 10° NNE
Cosmos 1048 Rocket 4.2 03:53:48 10° NW 03:58:47 47° NE 04:00:32 34° E
COSMO-SKYMED 1 2.6 03:56:46 22° NNE 03:59:27 56° ESE 04:03:45 10° S
CZ-2C R/B 3.6 03:55:04 10° S 04:00:31 68° WSW 04:06:16 10° NNW
SPOT 3 Rocket 4.3 04:03:34 30° NE 04:03:55 30° NE 04:08:23 10° NNW
NOSS 3-4 (A) 3.5 03:58:52 10° WSW 04:05:00 82° SSE 04:08:26 31° ENE
NOSS 3-4 (C) 3.5 03:59:01 10° WSW 04:05:10 81° SSE 04:08:35 31° ENE
NOSS 4 (H) 4.4 04:03:13 10° W 04:06:32 90° WNW 04:06:40 81° E
Terra 3.9 04:07:58 13° NNE 04:07:58 13° NNE 04:09:45 10° N
Cosmos 2227 4.1 04:02:35 10° SW 04:08:16 82° SE 04:11:26 28° NE
Cosmos 2227 Rocket 2.9 04:03:14 10° W 04:08:45 49° NNW 04:12:00 24° NE
SL-14 R/B 4.1 04:04:57 10° SW 04:08:46 50° WNW 04:12:32 11° N
Cosmos 1455 2.8 04:06:06 10° NNW 04:09:50 57° W 04:13:36 10° S
NOSS 3-1 (A) 4.2 04:05:22 10° WNW 04:12:08 64° SSW 04:19:20 13° SE
Cosmos 1844 Rocket 3.2 04:07:39 10° S 04:12:49 37° ESE 04:13:29 36° E
SJ-6B 3.6 04:14:36 35° NNE 04:14:36 35° NNE 04:17:29 10° N
Genesis I 3.2 04:09:46 10° W 04:13:41 70° N 04:14:18 57° ENE
Nadezhda 4 Rocket 3.9 04:07:46 10° S 04:13:57 68° E 04:20:06 10° NNE
COSMOS 2455 3.2 04:10:07 10° SSW 04:15:48 45° SE 04:17:24 37° E
SL-16 R/B 4.4 04:11:22 10° NNE 04:15:55 22° NNW 04:20:27 10° WNW
Cosmos 494 Rocket 4.3 04:11:04 10° NW 04:16:03 47° NE 04:17:02 41° ENE
CZ-4B R/B 1.2 04:16:24 76° NE 04:16:36 82° ESE 04:19:58 10° SSW
RESURS DK-1 2.4 04:16:22 10° SW 04:20:31 75° NW 04:21:36 47° NE
ERS-2 3.5 04:22:28 27° SSE 04:22:28 27° SSE 04:24:18 10° S
Meteor 2-13 Rocket 4.3 04:15:58 10° S 04:22:04 71° E 04:28:14 10° NNE
CZ-4C R/B 2.4 04:16:32 10° WSW 04:22:12 82° SSE 04:25:02 37° ENE
NOSS 2-2 (E) 3.9 04:18:00 10° WNW 04:22:25 82° SSW 04:24:26 40° ESE
Lacrosse 5 4.5 04:19:36 10° W 04:22:33 16° SW 04:25:29 10° S
ATLAS 2AS CENTAUR R/B 2.9 04:15:01 10° WSW 04:22:59 84° SSE 04:26:45 34° ENE
SKYMED 3 4.4 04:21:02 25° NNE 04:23:32 81° ESE 04:27:54 10° SSW
Helios 1A Rocket 3.3 04:20:50 10° S 04:24:57 64° WSW 04:29:07 10° NNW
Okean-O 3.3 04:21:58 10° S 04:26:21 55° WSW 04:30:45 10° NNW
Okean O Rocket 4.3 04:23:52 10° SW 04:27:15 21° W 04:30:38 10° NW
Cosmos 405 2.9 04:24:32 10° NNW 04:27:59 84° NNW 04:27:59 84° NNW
GENESIS II 4.3 04:24:16 10° SW 04:28:10 59° SSE 04:28:10 59° SSE
SL-08 RB Rocket 3.5 04:25:07 17° SSE 04:28:37 86° ENE 04:33:09 10° NNW
H-2A R/B 2.8 04:25:07 12° NNE 04:29:15 55° WNW 04:33:34 10° SW
Cosmos 968 Rocket 4.2 04:24:21 10° WSW 04:29:17 48° NW 04:32:14 23° NNE
IRS-1A Rocket 4.3 04:26:34 30° SE 04:29:33 63° ENE 04:35:22 10° NNW
Cosmos 1777 Rocket 3.9 04:24:19 10° SSW 04:29:35 77° ESE 04:31:41 38° NE
Meteor 1-21 Rocket 4.1 04:25:59 10° S 04:31:27 64° E 04:36:18 14° NNE
Cosmos 2297 Rocket 3.0 04:27:42 10° W 04:33:05 42° NNW 04:35:28 28° NE
Cosmos-2242 2.8 04:28:48 10° NNW 04:33:06 78° ENE 04:33:54 58° SE
Cosmos 1417 Rocket 4.4 04:29:43 10° NNW 04:35:55 69° ENE 04:40:16 21° SSE
CSL-04 Rocket 3.9 04:30:33 10° SSE 04:36:00 73° WSW 04:41:34 10° NNW
ATLAS 5 CENTAUR R/B 1.7 04:33:41 10° SW 04:38:01 64° SSE 04:38:26 60° ESE
Cosmos 1354 Rocket 4.4 04:33:56 10° SW 04:39:15 64° NW 04:42:01 28° NNE
YAOGAN 1 3.6 04:35:27 10° S 04:39:37 46° W 04:43:50 10° NNW
Cosmos 2315 Rocket 4.3 04:34:06 10° NNW 04:40:07 44° ENE 04:40:32 43° ENE
Cosmos 1553 Rocket 3.9 04:33:41 10° NNW 04:40:10 78° ENE 04:46:35 10° SSE
Cosmos 1892 Rocket 4.0 04:37:21 10° SSW 04:41:38 58° WNW 04:44:53 17° N
HJ-1C 4.1 04:40:47 38° SSW 04:41:41 52° W 04:44:59 10° NNW
USA 234 3.9 04:39:52 27° SE 04:43:12 48° SSW 04:49:32 10° W
Meteor 2-2 Rocket 4.4 04:37:43 10° NNW 04:43:29 53° ENE 04:44:08 50° E
Cosmos 1812 Rocket 4.2 04:41:01 10° NNW 04:45:23 57° W 04:49:42 10° S
Cosmos 2082 4.4 04:41:10 10° W 04:46:42 48° NNW 04:49:02 31° NNE
SKYMED 2 3.8 04:45:20 28° N 04:47:35 71° WNW 04:51:55 10° SSW
Cosmos 2026 Rocket 3.9 04:44:36 10° S 04:50:41 64° E 04:56:52 10° NNE
Cosmos 2221 4.1 04:47:51 10° N 04:49:55 25° N 04:49:55 25° N
Meteor 1-27 4.1 04:46:41 10° NNW 04:52:25 88° ENE 04:55:12 31° SSE
MetOp-A 4.0 04:51:23 35° SSE 04:53:47 88° ENE 04:59:11 10° NNW
SJ 16-02 2.0 04:50:39 10° SSW 04:53:44 43° S 04:53:44 43° S
NOSS 2-2 (D) 4.0 04:55:54 10° WNW 05:00:19 73° SSW 05:00:58 64° SSE
S3M 3.8 04:56:39 10° NNW 05:02:50 80° ENE 05:05:00 43° SSE
Cosmos 2263 Rocket 2.5 04:57:13 10° WSW 05:02:52 64° NW 05:04:41 42° NNE
Cosmos 883 Rocket 4.4 04:57:06 10° NNW 05:03:22 62° ENE 05:03:51 60° E
Cosmos 909 Rocket 4.0 05:02:03 10° WNW 05:08:22 85° NNE 05:09:40 60° ESE
SeaSat 1 3.5 05:08:57 33° NNE 05:10:16 40° NNW 05:14:52 10° W
ARGOS 4.2 05:07:28 10° S 05:12:36 45° W 05:17:48 10° NNW
CZ-4 R/B 3.8 05:10:00 10° SW 05:13:16 23° W 05:16:30 10° NW
COSMOS 2406 4.2 05:07:57 10° NW 05:13:27 45° WSW 05:17:02 21° S
USA 290 4.5 05:10:31 10° NW 05:12:14 25° WNW 05:12:14 25° WNW
Ariane Rocket 2.9 05:13:58 72° S 05:14:29 83° WSW 05:19:37 10° NNW
Resurs 01 Rocket 3.1 05:17:33 27° N 05:17:33 27° N 05:19:43 10° NNW
Cosmos 2195 Rocket 4.4 05:10:24 10° SSW 05:16:46 88° W 05:23:10 10° NNE
Cosmos 468 4.5 05:16:23 10° NW 05:21:39 76° WSW 05:21:51 74° SSW
MOS 1 4.3 05:21:37 50° S 05:23:12 77° WSW 05:28:58 10° NNW
MOS 1 Rocket 4.1 05:25:47 36° NNW 05:27:00 45° WNW 05:31:05 10° SW
APEX 4.2 05:20:32 10° SW 05:27:13 87° SE 05:27:29 82° ENE
Cosmos 1833 Rocket 3.8 05:23:19 10° NW 05:28:33 41° WSW 05:31:08 26° SSW
Cosmos 1627 Rocket 4.5 05:23:04 10° SSW 05:29:19 83° WNW 05:35:41 10° NNE
Cosmos 1428 Rocket 4.4 05:24:03 10° SSW 05:30:23 86° WNW 05:36:46 10° NNE
Cosmos 1626 Rocket 4.5 05:28:56 10° SW 05:32:30 46° WSW 05:32:30 46° WSW
H-2A R/B 4.0 05:29:51 10° SW 05:34:07 27° W 05:38:30 10° NNW
Cosmos 2082 Rocket 2.7 05:28:35 10° NW 05:34:12 56° WSW 05:35:13 49° SSW
USA 281 3.1 05:33:59 66° SSE 05:35:02 86° SW 05:41:39 10° NW
COSMO-SKYMED 1 4.0 05:33:58 27° NNW 05:35:32 36° WNW 05:39:31 10° WSW
Cosmos 1844 4.1 05:33:26 10° SW 05:37:52 55° SSW 05:37:52 55° SSW
Cosmos 1048 Rocket 4.3 05:36:00 10° NW 05:40:48 60° WSW 05:40:48 60° WSW
Cosmos 2219 4.1 05:36:42 10° WNW 05:42:02 38° N 05:42:13 38° N
SPOT 3 Rocket 4.1 05:44:12 53° NNW 05:44:12 53° NNW 05:48:08 10° NNW
Cosmos 1092 Rocket 4.3 05:37:18 10° SSW 05:43:26 64° WNW 05:49:34 10° NNE
Terra 3.9 05:46:51 18° N 05:46:51 18° N 05:48:15 10° N
Cosmos 2098 Rocket 4.3 05:38:10 10° SSW 05:45:36 83° WNW 05:52:52 10° NNE
CZ-4B R/B 4.3 05:49:30 17° WNW 05:49:30 17° WNW 05:50:59 10° W
Cosmos 2227 Rocket 3.2 05:48:37 10° WNW 05:53:49 38° N 05:53:49 38° N
NOSS 3-4 (A) 3.5 05:49:41 10° W 05:55:52 85° WNW 05:55:52 85° WNW
NOSS 3-4 (C) 3.5 05:49:51 10° W 05:56:02 85° WNW 05:56:02 85° WNW
Cosmos 1844 Rocket 3.1 05:50:43 10° SW 05:55:10 56° WSW 05:55:10 56° WSW
RESURS DK-1 4.4 05:55:13 10° W 05:57:29 26° WNW 05:57:29 26° WNW
COSMOS 2455 3.1 05:55:27 10° WSW 06:00:34 65° WSW 06:00:34 65° WSW
CZ-4C R/B 2.7 06:04:50 10° W 06:10:13 73° WNW 06:10:13 73° WNW
ATLAS 2AS CENTAUR R/B 2.8 06:06:19 10° W 06:14:11 86° N 06:14:11 86° N
Cosmos 2297 Rocket 3.4 06:12:59 10° WNW 06:17:16 36° NNW 06:17:16 36° NNW
ATLAS 5 CENTAUR R/B 3.6 06:17:58 10° W 06:19:58 27° W 06:19:58 27° W
Cosmos 2315 Rocket 4.4 06:19:51 10° NNW 06:25:25 60° WNW 06:25:25 60° WNW
USA 234 4.5 06:27:13 29° SW 06:27:22 29° SW 06:32:57 10° W
SJ 16-02 4.0 06:29:50 10° WSW 06:30:46 15° W 06:30:46 15° W
SeaSat 1 4.4 06:48:44 25° NW 06:48:44 25° NW 06:51:22 10° WNW
Cosmos 2263 Rocket 3.6 06:42:22 10° W 06:46:24 35° NW 06:46:24 35° NW
Resurs 01 Rocket 4.3 06:55:06 16° NW 06:55:06 16° NW 06:56:11 10° NNW
Cosmos 2082 Rocket 4.5 07:13:34 10° WNW 07:17:05 17° W 07:17:05 17° W
Cosmos 2227 Rocket 4.3 07:33:28 10° NW 07:35:39 23° NW 07:35:39 23° NW
CZ-4C R/B 4.4 07:53:09 10° WNW 07:55:25 24° WNW 07:55:25 24° WNW
ATLAS 2AS CENTAUR R/B 4.2 07:57:35 10° WNW 08:01:38 34° WNW 08:01:38 34° WNW
